User: anonymous   Login
Location: Unspecified
(0.0000°N, 0.0000°E)
Time: 09:24:51
(UTC+01:00)
Language:

GPS 2-05 Rocket1 - Orbit

View from above orbital plane
View from above orbital plane
View from above satellite
View from above satellite

Ground track
Ground track

The orbit data is extracted from the following two-line orbital elements,

1 20362U 89097B   16338.73914963  .00009852  00000-0  16565-3 0  9999
2 20362  35.6091  66.2524 0060635 311.8268 185.5967 15.48882364469462
Epoch (UTC): 03 December 2016 17:44:22
Eccentricity: 0.0060635
inclination: 35.6091°
perigee height: 379 km
apogee height: 461 km
right ascension of ascending node: 66.2524°
argument of perigee: 311.8268°
revolutions per day: 15.48882364
mean anomaly at epoch: 185.5967°
orbit number at epoch: 46946

The dashed part of the orbit path shows where the satellite is in the earth's shadow,  

DLR